Voltar ao catálogo

STARLINK-5545

AtivoComunicaçõesVLEO
NORAD 56476·PAYLOAD·🇺🇸 United States

Lançado May 10, 2023 de Vandenberg Space Force Base

Loading…

Próximas Passagens (próximas 24 horas)

TLE

AtualizadoSource: CelesTrak SupGP

Época: Sep 14, 2026, 20:57 UTC

1 56476C 23064AE  26257.87340278  .00441010  00000+0  35563-1 0  2573
2 56476  70.0005   7.5267 0003085 275.5655 150.2147 14.99590803    19

Acompanhe STARLINK-5545 em tempo real com AllMySat

Download on the App Store